Regional Weather Roundup
Issued by NWS Green Bay, WI

Home | Current Version | Previous Version | Text Only | Print | Product List | Glossary On
Versions: 1 2 3 4 5 6 7 8 9 10 11 12 13 14 15 16 17 18 19 20 21 22 23 24 25 26 27 28 29 30 31 32 33 34 35 36 37 38 39 40 41 42 43 44 45 46 47 48 49 50
000
ASUS43 KGRB 020659
RWRGRB

NORTH-CENTRAL AND NORTHEAST WISCONSIN REGIONAL WEATHER ROUNDUP
NATIONAL WEATHER SERVICE GREEN BAY WI
200 AM CDT SAT AUG 02 2014

WIZ005-009-010>012-018-019-020800-
NORTH CENTRAL WISCONSIN

CITY           SKY/WX    TMP DP  RH WIND       PRES   REMARKS
IRONWOOD       PTCLDY    50  50 100 CALM      30.10S
MANITOWISH WTR NOT AVBL
ARBOR VITAE    NOT AVBL
EAGLE RIVER    NOT AVBL
LAND O LAKES   NOT AVBL
RHINELANDER    CLEAR     51  50  96 CALM      30.13F FOG
PHILLIPS       PTCLDY    55  54  95 CALM      30.12F
ANTIGO         NOT AVBL
TOMAHAWK       NOT AVBL
MERRILL        NOT AVBL
$$

WIZ013-073-020800-
NORTHEAST WISCONSIN

CITY           SKY/WX    TMP DP  RH WIND       PRES   REMARKS
IRON MOUNTAIN  MOCLDY    58  53  84 CALM      30.11F
MARINETTE      CLEAR     63  59  88 E5        30.08F
$$

WIZ017-030-035>037-045-020800-
CENTRAL WISCONSIN

CITY           SKY/WX    TMP DP  RH WIND       PRES   REMARKS
MEDFORD        NOT AVBL
WAUSAU         CLEAR     58  57  97 CALM      30.10S FOG
MOSINEE        FOG       55  55 100 CALM      30.13S VSB 3/4
MARSHFIELD     CLEAR     56  54  93 CALM      30.12S FOG
WISC RAPIDS    CLEAR     57  55  93 S3        30.13S FOG
STEVENS POINT  NOT AVBL
WAUPACA        CLEAR     56  54  92 SW3       30.12S
SHAWANO        CLEAR     61  58  92 CALM      30.10S FOG
CLINTONVILLE   CLEAR     55  54  94 CALM      30.09F FOG
$$

WIZ038-039-048-051-020800-
FOX VALLEY

CITY           SKY/WX    TMP DP  RH WIND       PRES   REMARKS
NWS GREEN BAY  CLEAR     61  57  87 CALM      30.09F
APPLETON       NOT AVBL
OSHKOSH        CLEAR     61  57  87 SW5       30.10F
FOND DU LAC    CLEAR     56  54  93 CALM      30.11S
$$

WIZ022-050-052-020800-
EAST CENTRAL WISCONSIN

CITY           SKY/WX    TMP DP  RH WIND       PRES   REMARKS
STURGEON BAY   CLEAR     59  55  88 CALM      30.09F
MANITOWOC      NOT AVBL
SHEBOYGAN      CLEAR     57  54  89 W5        30.09F
$$

LMZ563-521-522-541>543-020800-
LAKESHORE

STATION/POSITION TIME  TEMP    WIND        PRES    VSBY  WAVE
                       AIR SEA DIR/SP/G                  HT/PER
                 (UTC) (F)     (DEG/KT/KT) (MB)    (MI)  (FT/S)
SHEBOYGAN LKSHOR 0600   67     270/ 12/ 13 1018.9F
KEWAUNEE LKSHORE 0600   58     310/  2/  3 1018.0F
NORTHPORT PIER   0600   63     120/  4/  5 1019.0S
N MID LAKE BUOY  0600   61 60   10/  4/  6 1018.8F         0
S GREEN BAY BUOY 0600   69 69  250/  8     1019.3F
SISTER BAY LKSHO 0600   62     140/  5/  9   N/A
CHAMBERS ISLAND  0600   64     100/  5/  7 1019.0S
MENOMINEE LKSHOR 0600   65      90/  8/ 11 1019.5R
$$



USA.gov is the U.S. government's official web portal to all federal, state and local government web resources and services.